{"data":{"norad_id":53508,"epoch":"2026-05-25T01:07:16.015296Z","epoch_age_seconds":77792,"freshness":"FRESH","line1":"1 53508U 22099AV  26145.04671314  .00000151  00000+0  14531-4 0  9991","line2":"2 53508  97.4495 266.1296 0002007 142.0125 218.1244 15.05648814207549","mean_motion":15.05648814,"eccentricity":0.0002007,"inclination_deg":97.4495,"raan_deg":266.1296,"arg_perigee_deg":142.0125,"mean_anomaly_deg":218.1244,"bstar":1.4531e-5,"rev_number":20754,"period_min":95.639832251082,"perigee_km":548.12441226427,"apogee_km":550.90517169357,"semimajor_km":6927.6517919789,"source":"CELESTRAK","updated_at":"2026-05-25T13:38:17.438512Z"}}